Date String (YYYY-MM-DD hh:mm:ss) UTC,Instrument flags,absolute air pressure of the measurement (hPa),sample flow rate (lpm),inlet stack bypass flow (lpm),air temperature of the measurement (°C),ambient temperature measured by the external sensor (°C),aerosol sample conditioner tube jacket temperature (°C),OPC LED temperature (°C),internal box temperature (°C),relative humidity of the measurement (%),span deviation,mass concentration of particles derived from Lorenz-Mie calculation of OPC scattering (μg/m³),mass concentration of particles derived from Lorenz-Mie calculation of OPC scattering (μg/m³),mass concentration of particles derived from Lorenz-Mie calculation of OPC scattering (μg/m³)
DateTimeUTC,F1_M11,P_M11,Q1_M11,Q2_M11,T1_M11,T2_M11,T3_M11,T4_M11,T5_M11,U1_M11,ZSPAN_M11,X2_M11,X0_M11,X1_M11
2024-01-27 19:00:00,SystemResetWarning,0836.4,5.00,000.00,022.5,021.9,000.0,030.6,024.0,12.1,0000.0,0004.18,0007.68,0003.81
2024-01-27 19:01:00,SystemResetWarning,0836.4,5.00,000.00,022.5,021.9,000.0,030.6,024.0,12.0,0000.0,0004.15,0007.74,0003.81
2024-01-27 19:02:00,SystemResetWarning,0836.4,5.00,000.00,022.5,022.0,000.0,030.7,024.1,12.0,0000.0,0004.16,0007.42,0003.81
2024-01-27 19:03:00,SystemResetWarning,0836.4,4.99,000.00,022.6,022.0,000.0,030.7,024.1,11.9,0000.0,0004.20,0007.51,0003.82
2024-01-27 19:04:00,SystemResetWarning,0836.4,5.00,000.00,022.6,022.0,000.0,030.7,024.1,12.1,0000.0,0004.20,0007.53,0003.81
2024-01-27 19:05:00,SystemResetWarning,0836.4,5.00,000.00,022.6,022.0,000.0,030.7,024.1,11.9,0000.0,0004.15,0007.42,0003.78
2024-01-27 19:06:00,SystemResetWarning,0836.4,5.00,000.00,022.6,022.0,000.0,030.7,024.1,11.7,0000.0,0004.10,0007.39,0003.76
2024-01-27 19:07:00,SystemResetWarning,0836.4,5.00,000.00,022.6,022.0,000.0,030.7,024.1,11.7,0000.0,0004.07,0007.37,0003.74
2024-01-27 19:08:00,SystemResetWarning,0836.4,5.01,000.00,022.6,022.1,000.0,030.8,024.2,11.7,0000.0,0004.04,0007.25,0003.71
2024-01-27 19:09:00,SystemResetWarning,0836.4,5.01,000.00,022.7,022.1,000.0,030.8,024.2,11.2,0000.0,0004.04,0007.36,0003.69
2024-01-27 19:10:00,SystemResetWarning,0836.4,5.00,000.00,022.7,022.1,000.0,030.8,024.2,11.3,0000.0,0004.03,0007.95,0003.67
2024-01-27 19:11:00,SystemResetWarning,0836.4,4.99,000.00,022.7,022.1,000.0,030.8,024.2,11.4,0000.0,0004.00,0008.16,0003.65
2024-01-27 19:12:00,SystemResetWarning,0836.3,5.00,000.00,022.7,022.1,000.0,030.8,024.3,11.6,0000.0,0003.98,0008.77,0003.62
2024-01-27 19:13:00,SystemResetWarning,0836.3,5.00,000.00,022.7,022.2,000.0,030.9,024.3,11.5,0000.0,0003.94,0008.86,0003.58
2024-01-27 19:14:00,SystemResetWarning,0836.3,5.01,000.00,022.8,022.2,000.0,030.9,024.3,11.2,0000.0,0003.89,0008.76,0003.56
2024-01-27 19:15:00,SystemResetWarning,0836.2,5.01,000.00,022.8,022.2,000.0,030.9,024.3,11.3,0000.0,0003.92,0009.30,0003.57
2024-01-27 19:16:00,SystemResetWarning,0836.2,5.01,000.00,022.8,022.2,000.0,030.9,024.3,11.6,0000.0,0003.97,0009.49,0003.61
2024-01-27 19:17:00,SystemResetWarning,0836.2,5.00,000.00,022.8,022.2,000.0,030.9,024.4,11.2,0000.0,0004.02,0009.45,0003.64
2024-01-27 19:18:00,SystemResetWarning,0836.2,5.00,000.00,022.8,022.2,000.0,030.9,024.4,11.3,0000.0,0004.02,0009.03,0003.66
2024-01-27 19:19:00,SystemResetWarning,0836.2,5.00,000.00,022.9,022.3,000.0,031.0,024.4,11.5,0000.0,0004.05,0009.04,0003.68
2024-01-27 19:20:00,SystemResetWarning,0836.2,5.00,000.00,022.9,022.3,000.0,031.0,024.4,11.4,0000.0,0004.06,0009.02,0003.70
2024-01-27 19:21:00,SystemResetWarning,0836.1,4.99,000.00,022.9,022.3,000.0,031.0,024.4,11.3,0000.0,0004.09,0009.42,0003.74
2024-01-27 19:22:00,SystemResetWarning,0836.1,5.00,000.00,022.9,022.3,000.0,031.0,024.5,11.4,0000.0,0004.10,0009.16,0003.76
2024-01-27 19:23:00,SystemResetWarning,0836.1,5.00,000.00,022.9,022.3,000.0,031.0,024.5,11.3,0000.0,0004.15,0008.66,0003.78
2024-01-27 19:24:00,SystemResetWarning,0836.1,5.00,000.00,022.9,022.4,000.0,031.0,024.5,11.4,0000.0,0004.21,0008.54,0003.83
2024-01-27 19:25:00,SystemResetWarning,0836.1,5.00,000.00,023.0,022.4,000.0,031.1,024.5,11.6,0000.0,0004.24,0008.68,0003.88
2024-01-27 19:26:00,SystemResetWarning,0836.1,5.00,000.00,023.0,022.4,000.0,031.1,024.5,11.5,0000.0,0004.29,0008.59,0003.92
2024-01-27 19:27:00,SystemResetWarning,0836.0,5.00,000.00,023.0,022.4,000.0,031.1,024.6,11.4,0000.0,0004.32,0008.51,0003.94
2024-01-27 19:28:00,SystemResetWarning,0836.0,5.00,000.00,023.0,022.4,000.0,031.1,024.6,11.5,0000.0,0004.35,0008.55,0003.96
2024-01-27 19:29:00,SystemResetWarning,0835.9,5.00,000.00,023.0,022.5,000.0,031.1,024.6,11.4,0000.0,0004.45,0008.81,0004.01
2024-01-27 19:30:00,SystemResetWarning,0835.9,5.00,000.00,023.1,022.5,000.0,031.2,024.6,11.2,0000.0,0004.49,0008.84,0004.05
2024-01-27 19:31:00,SystemResetWarning,0835.9,5.00,000.00,023.1,022.5,000.0,031.2,024.6,11.2,0000.0,0004.51,0008.87,0004.07
2024-01-27 19:32:00,SystemResetWarning,0835.9,5.00,000.00,023.1,022.5,000.0,031.2,024.6,11.0,0000.0,0004.51,0008.17,0004.07
2024-01-27 19:33:00,SystemResetWarning,0835.9,5.00,000.00,023.1,022.5,000.0,031.2,024.6,11.2,0000.0,0004.51,0007.91,0004.06
2024-01-27 19:34:00,SystemResetWarning,0835.8,5.00,000.00,023.1,022.6,000.0,031.2,024.7,11.1,0000.0,0004.48,0007.88,0004.06
2024-01-27 19:35:00,SystemResetWarning,0835.8,5.00,000.00,023.1,022.6,000.0,031.3,024.7,11.2,0000.0,0004.45,0008.38,0004.04
2024-01-27 19:36:00,SystemResetWarning,0835.8,5.01,000.00,023.2,022.6,000.0,031.3,024.7,11.4,0000.0,0004.44,0008.46,0004.01
2024-01-27 19:37:00,SystemResetWarning,0835.8,5.00,000.00,023.2,022.6,000.0,031.3,024.7,11.1,0000.0,0004.41,0008.19,0003.98
2024-01-27 19:38:00,SystemResetWarning,0835.8,5.00,000.00,023.2,022.6,000.0,031.3,024.7,11.1,0000.0,0004.38,0008.08,0003.97
2024-01-27 19:39:00,SystemResetWarning,0835.8,5.00,000.00,023.2,022.7,000.0,031.3,024.7,11.1,0000.0,0004.33,0007.97,0003.94
2024-01-27 19:40:00,SystemResetWarning,0835.8,5.00,000.00,023.2,022.7,000.0,031.3,024.8,11.3,0000.0,0004.24,0007.72,0003.89
2024-01-27 19:41:00,SystemResetWarning,0835.8,5.00,000.00,023.2,022.7,000.0,031.4,024.8,11.3,0000.0,0004.19,0007.67,0003.87
2024-01-27 19:42:00,SystemResetWarning,0835.8,5.00,000.00,023.3,022.7,000.0,031.4,024.8,11.2,0000.0,0004.20,0007.78,0003.86
2024-01-27 19:43:00,SystemResetWarning,0835.8,5.00,000.00,023.3,022.7,000.0,031.4,024.8,11.1,0000.0,0004.19,0007.72,0003.85
2024-01-27 19:44:00,SystemResetWarning,0835.8,5.00,000.00,023.3,022.7,000.0,031.4,024.8,11.3,0000.0,0004.20,0007.72,0003.86
2024-01-27 19:45:00,SystemResetWarning,0835.8,5.01,000.00,023.3,022.7,000.0,031.4,024.8,11.4,0000.0,0004.26,0007.88,0003.88
2024-01-27 19:46:00,SystemResetWarning,0835.8,5.01,000.00,023.3,022.7,000.0,031.4,024.8,11.0,0000.0,0004.28,0007.54,0003.88
2024-01-27 19:47:00,SystemResetWarning,0835.8,5.00,000.00,023.3,022.8,000.0,031.5,024.9,11.0,0000.0,0004.31,0007.46,0003.90
2024-01-27 19:48:00,SystemResetWarning,0835.8,5.00,000.00,023.4,022.8,000.0,031.5,024.9,11.2,0000.0,0004.31,0007.87,0003.91
2024-01-27 19:49:00,SystemResetWarning,0835.8,4.99,000.00,023.4,022.8,000.0,031.5,024.9,11.2,0000.0,0004.31,0007.89,0003.90
2024-01-27 19:50:00,SystemResetWarning,0835.8,5.00,000.00,023.4,022.8,000.0,031.5,024.9,11.3,0000.0,0004.33,0008.18,0003.91
2024-01-27 19:51:00,SystemResetWarning,0835.8,5.00,000.00,023.4,022.8,000.0,031.5,024.9,11.1,0000.0,0004.36,0008.46,0003.93
2024-01-27 19:52:00,SystemResetWarning,0835.8,4.99,000.00,023.4,022.9,000.0,031.5,024.9,11.1,0000.0,0004.40,0008.54,0003.94
2024-01-27 19:53:00,SystemResetWarning,0835.7,5.00,000.00,023.4,022.9,000.0,031.6,024.9,10.9,0000.0,0004.40,0008.47,0003.95
2024-01-27 19:54:00,SystemResetWarning,0835.7,5.00,000.00,023.5,022.9,000.0,031.6,025.0,11.1,0000.0,0004.41,0008.46,0003.96
2024-01-27 19:55:00,SystemResetWarning,0835.7,5.00,000.00,023.5,022.9,000.0,031.6,025.0,11.0,0000.0,0004.45,0008.57,0003.97
2024-01-27 19:56:00,SystemResetWarning,0835.6,5.00,000.00,023.5,022.9,000.0,031.6,025.0,11.0,0000.0,0004.41,0008.61,0003.97
2024-01-27 19:57:00,SystemResetWarning,0835.6,5.00,000.00,023.5,022.9,000.0,031.6,025.0,10.9,0000.0,0004.41,0008.59,0003.99
2024-01-27 19:58:00,SystemResetWarning,0835.6,5.00,000.00,023.5,022.9,000.0,031.6,025.0,11.0,0000.0,0004.38,0008.30,0003.99
2024-01-27 19:59:00,SystemResetWarning,0835.5,5.00,000.00,023.5,023.0,000.0,031.7,025.0,11.0,0000.0,0004.39,0007.83,0004.01
